User: anonymous   Login
Location: ????????
(54.9045°N, 39.1041°E)
Time: 19:29:17
(UTC+00:00)
Language:

Meteor 1-19 Rocket - Orbit

View from above orbital plane
View from above orbital plane
View from above satellite
View from above satellite

Ground track
Ground track

The orbit data is extracted from the following two-line orbital elements,

1  7493U 74083B   24172.12028335  .00000315  00000-0  17221-3 0  9990
2  7493  81.1570 176.0125 0086457  84.2101 276.8916 14.07790472548967
Epoch (UTC): 20 June 2024 02:53:12
Eccentricity: 0.0086457
inclination: 81.1570°
perigee height: 804 km
apogee height: 929 km
right ascension of ascending node: 176.0125°
argument of perigee: 84.2101°
revolutions per day: 14.07790472
mean anomaly at epoch: 276.8916°
orbit number at epoch: 54896

The dashed part of the orbit path shows where the satellite is in the earth's shadow,  

DLR